"2010-05-24 00:00:00",138700,5.853,336.7,7.515,0.682,16.26,106.7616,16.58,17.53,44.68,0,110.5,13.37,17.39,298.7
"2010-05-24 00:00:30",138701,4.738,349.7,5.527,0.974,16.42,106.7613,16.58,17.51,44.36,0,110.5,13.37,17.39,311.7
"2010-05-24 00:01:00",138702,4.047,356.7,8.83,1.68,16.37,106.7613,16.58,17.51,43.76,0,110.5,13.37,17.39,318.7
"2010-05-24 00:01:30",138703,4.954,348.3,13.09,2.061,16.12,106.7613,16.58,17.49,43.53,0,110.5,13.37,17.39,310.3
"2010-05-24 00:02:00",138704,6.756,331.4,5.933,0.369,15.87,106.7478,16.55,17.48,43.42,0,110.5,13.37,17.36,293.4
"2010-05-24 00:02:30",138705,5.536,331.1,6.161,0.455,16.01,106.7275,16.5,17.46,43.53,0,110.5,13.37,17.31,293.1
"2010-05-24 00:03:00",138706,4.421,355.4,24.33,1.826,16.75,106.7498,16.55,17.47,42.91,0,110.5,13.37,17.36,317.4
"2010-05-24 00:03:30",138707,2.43,14.08,22.98,1.054,16.36,106.7946,16.67,17.52,44.01,0,110.5,13.37,17.48,336.1
"2010-05-24 00:04:00",138708,3.77,32.57,43.89,1.362,16.18,106.8033,16.69,17.57,43.21,0,110.5,13.37,17.50,354.6
"2010-05-24 00:04:30",138709,3.804,359.3,16.11,1.462,16.13,106.8236,16.74,17.58,43.52,0,110.5,13.37,17.55,321.3
"2010-05-24 00:05:00",138710,4.075,351,10.68,1.765,16.08,106.7971,16.68,17.6,43.05,0,110.5,13.37,17.49,313.0
"2010-05-24 00:05:30",138711,5.727,327.8,6.269,0.445,15.23,106.7717,16.61,17.53,43.29,0,110.5,13.37,17.42,289.8
"2010-05-24 00:06:00",138712,6.677,327.5,2.353,0.294,15.32,106.7064,16.44,17.45,43.83,0,110.5,13.37,17.25,289.5
"2010-05-24 00:06:30",138713,7.462,322.7,3.868,0.441,15.47,106.6726,16.36,17.38,43.54,0,110.5,13.37,17.17,284.7
"2010-05-24 00:07:00",138714,7.371,321.2,3.312,0.399,15.41,106.6568,16.32,17.33,43.39,0,110.5,13.37,17.12,283.2
"2010-05-24 00:07:30",138715,7.043,317.9,2.395,0.363,15.41,106.6348,16.26,17.27,43.2,0,110.5,13.37,17.07,279.9
"2010-05-24 00:08:00",138716,7.937,311.7,2.9,0.538,15.87,106.6235,16.23,17.22,42.94,0,110.5,13.37,17.04,273.7
"2010-05-24 00:08:30",138717,6.446,309.5,3.453,0.435,16.02,106.6232,16.23,17.21,42.89,0,110.5,13.37,17.04,271.5
"2010-05-24 00:09:00",138718,6.162,314.4,2.584,0.791,16.25,106.6377,16.27,17.2,42.94,0,110.5,13.37,17.08,276.4
"2010-05-24 00:09:30",138719,8.72,317.5,3.971,0.627,16.17,106.6585,16.32,17.22,42.53,0,110.5,13.37,17.13,279.5
"2010-05-24 00:10:00",138720,8.56,318.9,3.921,0.796,16.32,106.6804,16.38,17.23,42.51,0,110.5,13.37,17.19,280.9
"2010-05-24 00:10:30",138721,9.91,311.3,1.64,0.529,15.67,106.6942,16.41,17.26,42.35,0,110.5,13.37,17.22,273.3
"2010-05-24 00:11:00",138722,9.21,318.2,4.569,0.631,15.86,106.6748,16.36,17.27,42.43,0,110.5,13.36,17.17,280.2
"2010-05-24 00:11:30",138723,8.8,320.8,3.22,1.198,15.99,106.6621,16.33,17.26,42.55,0,110.5,13.37,17.14,282.8
"2010-05-24 00:12:00",138724,10.38,321.6,6.55,1.1,15.87,106.6621,16.33,17.24,42.8,0,110.5,13.37,17.14,283.6
"2010-05-24 00:12:30",138725,11.69,315.1,1.513,0.298,15.34,106.6529,16.31,17.24,42.66,0,110.5,13.37,17.11,277.1
"2010-05-24 00:13:00",138726,11.63,321.6,2.217,0.526,15.53,106.6157,16.21,17.22,42.96,0,110.5,13.37,17.02,283.6
"2010-05-24 00:13:30",138727,11.7,324.1,3.594,0.655,15.69,106.5793,16.12,17.17,42.87,0,110.5,13.37,16.93,286.1
"2010-05-24 00:14:00",138728,8.64,315.2,3.413,0.532,16.27,106.5607,16.07,17.13,42.48,0,110.5,13.38,16.88,277.2
"2010-05-24 00:14:30",138729,8.76,310.9,4.01,0.48,16.27,106.5607,16.07,17.07,42.49,0,110.5,13.38,16.88,272.9
"2010-05-24 00:15:00",138730,9.94,311.3,3.088,0.667,16.61,106.5734,16.1,17.08,42.28,0,110.5,13.38,16.91,273.3
"2010-05-24 00:15:30",138731,10.23,312.8,5.763,1.033,17.21,106.6066,16.19,17.1,42.03,0,110.5,13.38,17.00,274.8
"2010-05-24 00:16:00",138732,3.826,295.6,15.55,1.638,16.76,106.6616,16.33,17.16,41.8,0,110.5,13.38,17.14,257.6
"2010-05-24 00:16:30",138733,4.48,292.5,14.76,0.923,16.91,106.7179,16.47,17.23,41.4,0,110.5,13.38,17.28,254.5
"2010-05-24 00:17:00",138734,6.254,259.7,14.8,1.235,16.93,106.7749,16.62,17.32,41.42,0,110.5,13.38,17.43,221.7
"2010-05-24 00:17:30",138735,2.404,275.1,60.34,2.29,16.83,106.827,16.75,17.42,41.08,0,110.5,13.38,17.56,237.1
"2010-05-24 00:18:00",138736,5.474,259.9,18.04,3.496,16.17,106.8436,16.79,17.5,40.92,0,110.5,13.38,17.60,221.9
"2010-05-24 00:18:30",138737,7.084,279.3,11.8,1.337,16.67,106.8594,16.83,17.54,40.67,0,110.5,13.37,17.65,241.3
"2010-05-24 00:19:00",138738,7.752,262.4,12.54,2.506,16.77,106.8789,16.88,17.58,40.4,0,110.5,13.37,17.70,224.4
"2010-05-24 00:19:30",138739,10.34,263.1,17.16,1.489,17.04,106.9017,16.94,17.64,40.17,0,110.5,13.37,17.75,225.1
"2010-05-24 00:20:00",138740,8.07,299.3,8.66,0.9,16.69,106.9436,17.05,17.71,39.9,0,110.5,13.37,17.86,261.3
"2010-05-24 00:20:30",138741,8.42,296.4,6.142,1.179,15.48,106.8914,16.92,17.72,40.29,0,110.5,13.37,17.73,258.4
"2010-05-24 00:21:00",138742,5.711,296.6,9.23,1.451,16.29,106.8198,16.73,17.62,40.53,0,110.5,13.37,17.54,258.6
"2010-05-24 00:21:30",138743,4.2,295.9,15.39,0.675,16.25,106.7991,16.68,17.59,40.65,0,110.5,13.37,17.49,257.9
"2010-05-24 00:22:00",138744,7.557,295.6,8.81,2.286,15.86,106.7965,16.67,17.58,40.76,0,110.5,13.37,17.48,257.6
"2010-05-24 00:22:30",138745,10.38,289,9.65,1.344,16.06,106.7444,16.54,17.5,40.68,0,110.5,13.37,17.35,251.0
"2010-05-24 00:23:00",138746,7.488,291.3,17.17,1.073,16.33,106.7366,16.52,17.46,40.64,0,110.5,13.37,17.33,253.3
"2010-05-24 00:23:30",138747,8.04,276.8,10.7,1.488,16.77,106.7492,16.55,17.46,40.47,0,110.5,13.37,17.36,238.8
"2010-05-24 00:24:00",138748,5.546,234.8,17.91,1.192,16.81,106.7893,16.66,17.5,40.23,0,110.5,13.37,17.47,196.8
"2010-05-24 00:24:30",138749,3.908,217.5,23.77,0.907,17.07,106.8276,16.75,17.54,40.05,0,110.5,13.37,17.56,179.5
"2010-05-24 00:25:00",138750,2.787,277.3,22.92,0.607,16.92,106.8918,16.92,17.64,39.77,0,110.5,13.37,17.73,239.3
"2010-05-24 00:25:30",138751,3.46,286,17.94,0.671,16.8,106.9412,17.04,17.72,39.56,0,110.5,13.37,17.86,248.0
"2010-05-24 00:26:00",138752,4.36,296.6,15.9,0.841,16.99,106.9789,17.14,17.82,39.2,0,110.5,13.36,17.95,258.6
"2010-05-24 00:26:30",138753,4.71,248.2,10.98,0.923,17.26,107.0258,17.26,17.91,38.74,0,110.5,13.35,18.07,210.2
"2010-05-24 00:27:00",138754,6.191,230.4,8.37,1.664,16.94,107.0746,17.39,18.01,38.51,0,110.5,13.35,18.20,192.4
"2010-05-24 00:27:30",138755,4.079,236.1,16,0.872,16.76,107.0904,17.43,18.1,38.43,0,110.5,13.35,18.24,198.1
"2010-05-24 00:28:00",138756,3.033,283.5,16.66,0.892,16.56,107.0934,17.43,18.16,38.32,0,110.5,13.35,18.25,245.5
"2010-05-24 00:28:30",138757,1.983,311.9,44.86,1.407,16.77,107.0941,17.44,18.18,38.19,0,110.5,13.35,18.25,273.9
"2010-05-24 00:29:00",138758,2.704,242.2,26.91,0.939,16.56,107.0997,17.45,18.23,38.1,0,110.5,13.35,18.26,204.2
"2010-05-24 00:29:30",138759,2.969,238.5,14.23,0.715,16.6,107.1002,17.45,18.25,38.01,0,110.5,13.34,18.27,200.5
"2010-05-24 00:30:00",138760,4.002,237.1,11.39,0.851,16.62,107.1183,17.5,18.28,37.92,0,110.5,13.34,18.31,199.1
"2010-05-24 00:30:30",138761,2.543,219.7,19.85,1.066,16.64,107.1332,17.54,18.31,37.88,0,110.5,13.34,18.35,181.7
"2010-05-24 00:31:00",138762,2.206,209.6,47.11,1.023,16.69,107.1338,17.54,18.34,37.73,0,110.5,13.34,18.35,171.6
"2010-05-24 00:31:30",138763,3.238,201.5,21.49,0.837,16.58,107.1346,17.54,18.37,37.7,0,110.6,13.34,18.35,163.5
"2010-05-24 00:32:00",138764,1.533,193.4,26.88,0.878,16.54,107.1554,17.59,18.38,37.7,0,110.5,13.34,18.41,155.4
"2010-05-24 00:32:30",138765,1.289,101.8,34.76,0.741,16.65,107.167,17.62,18.41,37.56,0,110.6,13.34,18.44,63.8
"2010-05-24 00:33:00",138766,1.456,27.29,11.52,0.655,16.28,107.167,17.62,18.43,37.6,0,110.6,13.34,18.44,349.3
"2010-05-24 00:33:30",138767,2.11,343.5,21.76,1.024,16.31,107.1639,17.62,18.43,37.56,0,110.6,13.35,18.43,305.5
"2010-05-24 00:34:00",138768,3.278,300.4,19.1,0.751,16.56,107.1645,17.62,18.43,37.42,0,110.6,13.35,18.43,262.4
"2010-05-24 00:34:30",138769,2.279,315.3,18.65,0.841,16.49,107.167,17.62,18.44,37.41,0,110.6,13.34,18.44,277.3
"2010-05-24 00:35:00",138770,5.477,323.8,12.79,0.885,15.45,107.134,17.54,18.42,38.13,0,110.6,13.35,18.35,285.8
"2010-05-24 00:35:30",138771,5.165,328.7,6.149,0.726,15.56,107.0678,17.37,18.35,38.5,0,110.6,13.35,18.18,290.7
"2010-05-24 00:36:00",138772,3.184,306.6,27.92,1.12,15.59,106.9889,17.17,18.23,38.84,0,110.6,13.35,17.98,268.6
"2010-05-24 00:36:30",138773,5.31,312.1,7.865,1.03,15.68,106.9205,16.99,18.13,39.16,0,110.6,13.35,17.80,274.1
"2010-05-24 00:37:00",138774,6.207,324.8,4.786,0.811,15.39,106.8608,16.84,17.99,39.75,0,110.6,13.35,17.65,286.8
"2010-05-24 00:37:30",138775,6.133,324.4,8.56,0.684,15.93,106.8118,16.71,17.89,39.92,0,110.6,13.35,17.52,286.4
"2010-05-24 00:38:00",138776,7.138,331,5.175,0.465,15.62,106.7895,16.66,17.83,40.42,0,110.6,13.36,17.47,293.0
"2010-05-24 00:38:30",138777,7.38,330.7,5.08,0.884,15.62,106.7523,16.56,17.77,40.67,0,110.6,13.36,17.37,292.7
"2010-05-24 00:39:00",138778,7.737,323.8,2.345,0.473,15.65,106.7157,16.47,17.69,40.79,0,110.6,13.36,17.28,285.8
"2010-05-24 00:39:30",138779,7.751,329.2,5.487,0.563,15.95,106.6888,16.4,17.6,40.98,0,110.6,13.36,17.21,291.2
"2010-05-24 00:40:00",138780,7.009,322,2.192,0.381,15.84,106.6813,16.38,17.53,41.23,0,110.6,13.37,17.19,284.0
"2010-05-24 00:40:30",138781,8.07,314.7,5.505,0.563,15.67,106.6596,16.32,17.45,41.45,0,110.6,13.37,17.13,276.7
"2010-05-24 00:41:00",138782,6.614,312.7,4.614,0.498,16.06,106.6366,16.26,17.38,41.48,0,110.6,13.37,17.07,274.7
"2010-05-24 00:41:30",138783,4.944,314.1,4.303,0.634,16.41,106.6451,16.29,17.34,41.49,0,110.6,13.37,17.09,276.1
"2010-05-24 00:42:00",138784,5.615,329.5,6.747,0.596,15.85,106.6579,16.32,17.31,41.63,0,110.6,13.37,17.13,291.5
"2010-05-24 00:42:30",138785,4.909,328.4,8.15,0.722,15.9,106.6286,16.24,17.27,41.72,0,110.6,13.38,17.05,290.4
"2010-05-24 00:43:00",138786,5.002,326.1,4.607,0.385,16.03,106.6283,16.24,17.24,41.78,0,110.6,13.37,17.05,288.1
"2010-05-24 00:43:30",138787,5.525,324.7,7.143,0.883,16.03,106.6283,16.24,17.21,41.85,0,110.6,13.37,17.05,286.7
"2010-05-24 00:44:00",138788,5.914,327.1,3.22,0.441,16.04,106.6281,16.24,17.2,41.87,0,110.6,13.37,17.05,289.1
"2010-05-24 00:44:30",138789,5.089,327.9,12.3,0.811,16.31,106.6283,16.24,17.19,41.73,0,110.6,13.37,17.05,289.9
"2010-05-24 00:45:00",138790,5.76,343.1,3.704,0.446,16.31,106.6379,16.27,17.2,41.76,0,110.6,13.37,17.08,305.1
"2010-05-24 00:45:30",138791,4.995,334.4,3.663,0.433,16.36,106.6605,16.32,17.21,41.64,0,110.5,13.37,17.13,296.4
"2010-05-24 00:46:00",138792,4.842,336.1,5.035,0.388,16.43,106.6765,16.37,17.24,41.48,0,110.5,13.37,17.18,298.1
"2010-05-24 00:46:30",138793,4.977,334.2,4.797,0.262,16.19,106.696,16.42,17.27,41.55,0,110.5,13.37,17.23,296.2
"2010-05-24 00:47:00",138794,4.592,346,9.17,1.134,16.57,106.6999,16.43,17.3,41.36,0,110.5,13.37,17.24,308.0
"2010-05-24 00:47:30",138795,4.297,330.4,14.05,0.654,16.37,106.729,16.5,17.32,41.21,0,110.5,13.37,17.31,292.4
"2010-05-24 00:48:00",138796,4.799,330.4,9.14,0.578,16.69,106.7551,16.57,17.36,40.74,0,110.5,13.37,17.38,292.4
"2010-05-24 00:48:30",138797,4.332,328.5,6.457,0.902,16.58,106.796,16.67,17.44,40.58,0,110.5,13.38,17.48,290.5
"2010-05-24 00:49:00",138798,6.377,328.6,11.18,0.872,16.77,106.8231,16.74,17.51,40.22,0,110.5,13.38,17.55,290.6
"2010-05-24 00:49:30",138799,4.696,330.3,8.91,1.474,16.22,106.8541,16.82,17.54,40.35,0,110.5,13.38,17.63,292.3
"2010-05-24 00:50:00",138800,6.685,325.7,1.892,0.393,15.7,106.8346,16.77,17.56,41.01,0,110.5,13.38,17.58,287.7
"2010-05-24 00:50:30",138801,7.31,332.3,1.923,0.402,15.86,106.7997,16.68,17.56,41.08,0,110.5,13.38,17.49,294.3
"2010-05-24 00:51:00",138802,6.899,329.3,5.423,0.602,16.14,106.767,16.6,17.51,41.11,0,110.5,13.38,17.41,291.3
"2010-05-24 00:51:30",138803,6.268,323.9,4.089,0.561,16.65,106.7636,16.59,17.48,40.57,0,110.5,13.38,17.40,285.9
"2010-05-24 00:52:00",138804,6.222,326,3.796,0.722,16.62,106.7828,16.64,17.5,40.53,0,110.5,13.38,17.45,288.0
"2010-05-24 00:52:30",138805,7.008,323.3,5.289,0.501,16.03,106.7836,16.64,17.51,41.16,0,110.5,13.38,17.45,285.3
"2010-05-24 00:53:00",138806,6.787,324.7,3.991,0.257,15.91,106.7599,16.58,17.5,41.43,0,110.5,13.38,17.39,286.7
"2010-05-24 00:53:30",138807,6.57,327.9,1.796,0.291,16.03,106.7306,16.5,17.47,41.59,0,110.5,13.38,17.31,289.9
"2010-05-24 00:54:00",138808,6.579,324.5,2.455,0.271,16.1,106.7095,16.45,17.43,41.56,0,110.5,13.38,17.26,286.5
"2010-05-24 00:54:30",138809,7.216,322.2,1.911,0.55,15.9,106.6937,16.41,17.39,41.75,0,110.5,13.38,17.22,284.2
"2010-05-24 00:55:00",138810,7.277,324.6,3.248,0.701,16.11,106.6627,16.33,17.37,41.78,0,110.5,13.38,17.14,286.6
"2010-05-24 00:55:30",138811,5.771,321.4,3.161,0.337,16.18,106.6582,16.32,17.32,41.79,0,110.5,13.38,17.13,283.4
"2010-05-24 00:56:00",138812,5.857,321.2,4.937,0.433,16.16,106.6346,16.26,17.28,41.87,0,110.5,13.38,17.07,283.2
"2010-05-24 00:56:30",138813,5.601,323.4,2.965,0.405,16.22,106.6289,16.24,17.26,41.92,0,110.5,13.38,17.05,285.4
"2010-05-24 00:57:00",138814,6.675,325.7,2.854,0.624,16.05,106.6289,16.24,17.24,42.13,0,110.5,13.38,17.05,287.7
"2010-05-24 00:57:30",138815,7.436,319.5,2.307,0.359,15.86,106.6067,16.19,17.22,42.31,0,110.5,13.38,17.00,281.5
"2010-05-24 00:58:00",138816,7.482,318.9,1.585,0.261,15.82,106.5948,16.16,17.17,42.46,0,110.5,13.38,16.97,280.9
"2010-05-24 00:58:30",138817,7.458,320.3,2.016,0.168,15.89,106.5742,16.1,17.12,42.66,0,110.5,13.38,16.91,282.3
"2010-05-24 00:59:00",138818,7.491,320.5,0.979,0.14,15.89,106.5608,16.07,17.08,42.69,0,110.5,13.38,16.88,282.5
"2010-05-24 00:59:30",138819,7.982,319.9,1.052,0.239,15.76,106.5499,16.04,17.06,43.01,0,110.5,13.38,16.85,281.9
"2010-05-24 01:00:00",138820,8.5,319.7,1.138,0.191,15.8,106.5209,15.97,17.01,43.01,0,110.5,13.38,16.78,281.7
"2010-05-24 01:00:30",138821,8.47,320.3,2.11,0.165,15.87,106.4986,15.91,16.96,43.3,0,110.5,13.38,16.72,282.3
"2010-05-24 01:01:00",138822,8.07,320.7,2.183,0.21,15.88,106.4907,15.89,16.91,43.43,0,110.5,13.38,16.70,282.7
"2010-05-24 01:01:30",138823,7.644,320,1.682,0.361,15.82,106.4642,15.82,16.87,44.26,0,110.5,13.38,16.63,282.0
"2010-05-24 01:02:00",138824,7.661,320.9,1.404,0.272,15.86,106.4465,15.78,16.82,44.5,0,110.5,13.38,16.58,282.9
"2010-05-24 01:02:30",138825,7.293,321.1,1.661,0.314,15.92,106.4276,15.73,16.77,44.37,0,110.5,13.38,16.54,283.1
"2010-05-24 01:03:00",138826,7.343,323.3,4.459,0.274,15.88,106.427,15.73,16.73,44.57,0,110.5,13.38,16.53,285.3
"2010-05-24 01:03:30",138827,7.368,326.3,2.55,0.143,16.05,106.4079,15.68,16.69,44.14,0,110.5,13.38,16.48,288.3
"2010-05-24 01:04:00",138828,7.561,327.4,1.132,0.16,16.15,106.4067,15.67,16.68,43.97,0,110.5,13.38,16.48,289.4
"2010-05-24 01:04:30",138829,7.429,326.7,1.08,0.288,16.13,106.4234,15.72,16.66,44,0,110.5,13.39,16.52,288.7
"2010-05-24 01:05:00",138830,7.171,326.6,1.106,0.23,16.27,106.4276,15.73,16.66,43.99,0,110.5,13.39,16.54,288.6
"2010-05-24 01:05:30",138831,7.673,327,1.522,0.397,16.04,106.4276,15.73,16.67,44.03,0,110.5,13.39,16.54,289.0
"2010-05-24 01:06:00",138832,7.773,327.9,1.87,0.166,16.09,106.4276,15.73,16.68,43.93,0,110.5,13.39,16.54,289.9
"2010-05-24 01:06:30",138833,7.507,326.1,1.226,0.204,16.13,106.4276,15.73,16.66,43.9,0,110.5,13.39,16.54,288.1
"2010-05-24 01:07:00",138834,7.571,324.3,1.648,0.195,16.1,106.4276,15.73,16.68,43.95,0,110.5,13.39,16.54,286.3
"2010-05-24 01:07:30",138835,7.491,324.6,1.446,0.216,16.09,106.4276,15.73,16.66,43.89,0,110.5,13.39,16.54,286.6
"2010-05-24 01:08:00",138836,7.942,324.1,2.347,0.397,16.12,106.4276,15.73,16.67,44.01,0,110.5,13.39,16.54,286.1
"2010-05-24 01:08:30",138837,7.894,322.5,1.709,0.239,16.17,106.4276,15.73,16.67,43.94,0,110.4,13.39,16.54,284.5
"2010-05-24 01:09:00",138838,7.878,323,1.53,0.358,16.15,106.4276,15.73,16.68,44.01,0,110.4,13.39,16.54,285.0
"2010-05-24 01:09:30",138839,7.98,321.2,2.661,0.24,16.05,106.4276,15.73,16.69,44.04,0,110.4,13.4,16.54,283.2
"2010-05-24 01:10:00",138840,8.05,321.4,1.453,0.292,16.05,106.4276,15.73,16.68,44,0,110.4,13.4,16.54,283.4
"2010-05-24 01:10:30",138841,7.382,320,2.104,0.181,16.11,106.4276,15.73,16.66,43.93,0,110.4,13.4,16.54,282.0
"2010-05-24 01:11:00",138842,7.172,324.4,1.364,0.254,16.28,106.4276,15.73,16.66,43.94,0,110.4,13.4,16.54,286.4
"2010-05-24 01:11:30",138843,7.337,323.7,2.342,0.259,16.22,106.4276,15.73,16.68,43.91,0,110.4,13.4,16.54,285.7
"2010-05-24 01:12:00",138844,6.513,328.7,1.339,0.15,16.29,106.4321,15.74,16.68,43.83,0,110.4,13.4,16.55,290.7
"2010-05-24 01:12:30",138845,6.915,327.8,1.845,0.308,16.12,106.4597,15.81,16.68,43.86,0,110.4,13.41,16.62,289.8
"2010-05-24 01:13:00",138846,6.6,328.3,2.155,0.357,16.19,106.4589,15.81,16.7,43.84,0,110.4,13.4,16.62,290.3
"2010-05-24 01:13:30",138847,7.557,327.5,1.66,0.214,16.09,106.4614,15.81,16.7,43.82,0,110.4,13.4,16.62,289.5
"2010-05-24 01:14:00",138848,7.456,327.7,1.449,0.408,16,106.4493,15.78,16.7,43.87,0,110.4,13.4,16.59,289.7
"2010-05-24 01:14:30",138849,6.6,328.7,1.606,0.467,16.14,106.4304,15.74,16.69,43.89,0,110.4,13.4,16.54,290.7
"2010-05-24 01:15:00",138850,7.11,327.5,1.707,0.27,16.21,106.4302,15.73,16.69,43.88,0,110.4,13.4,16.54,289.5
"2010-05-24 01:15:30",138851,7.477,325.3,3.21,0.299,15.94,106.4301,15.73,16.69,43.99,0,110.4,13.4,16.54,287.3
"2010-05-24 01:16:00",138852,6.886,327.2,2.518,0.353,16.29,106.4276,15.73,16.69,44,0,110.4,13.4,16.54,289.2
"2010-05-24 01:16:30",138853,6.518,325.7,2.492,0.183,16.09,106.4288,15.73,16.69,44.03,0,110.4,13.4,16.54,287.7
"2010-05-24 01:17:00",138854,6.991,324.2,3.138,0.171,16.11,106.4276,15.73,16.66,44.05,0,110.4,13.4,16.54,286.2
"2010-05-24 01:17:30",138855,6.526,329.4,3.182,0.377,16.34,106.4285,15.73,16.66,44.07,0,110.4,13.4,16.54,291.4
"2010-05-24 01:18:00",138856,6.827,328.5,4.143,0.299,16.27,106.4279,15.73,16.66,44.07,0,110.4,13.4,16.54,290.5
"2010-05-24 01:18:30",138857,7.138,328.6,1.428,0.237,16.35,106.4288,15.73,16.67,44.05,0,110.4,13.4,16.54,290.6
"2010-05-24 01:19:00",138858,6.696,329.9,1.682,0.23,16.41,106.4285,15.73,16.66,44.04,0,110.4,13.4,16.54,291.9
"2010-05-24 01:19:30",138859,6.79,329.5,3.073,0.259,16.42,106.4313,15.74,16.66,43.98,0,110.4,13.4,16.54,291.5
"2010-05-24 01:20:00",138860,6.085,326.3,3.655,0.184,16.49,106.4565,15.8,16.69,43.89,0,110.4,13.4,16.61,288.3
"2010-05-24 01:20:30",138861,6.024,323.2,2.223,0.291,16.38,106.4626,15.82,16.71,43.83,0,110.4,13.4,16.63,285.2
"2010-05-24 01:21:00",138862,6.17,324.6,2.181,0.232,16.51,106.4652,15.82,16.73,43.72,0,110.4,13.4,16.63,286.6
"2010-05-24 01:21:30",138863,6.688,329.2,2.55,0.714,16.48,106.4857,15.88,16.75,43.65,0,110.4,13.4,16.68,291.2
"2010-05-24 01:22:00",138864,5.292,332.5,16.26,1.408,16.74,106.4956,15.9,16.76,43.3,0,110.4,13.4,16.71,294.5
"2010-05-24 01:22:30",138865,6.067,335.9,7.387,0.579,16.68,106.5249,15.98,16.82,43.01,0,110.4,13.4,16.79,297.9
"2010-05-24 01:23:00",138866,6.497,331.9,3.263,0.564,16.2,106.5291,15.99,16.85,43.37,0,110.4,13.41,16.80,293.9
"2010-05-24 01:23:30",138867,6.52,326.3,7.497,0.975,16.16,106.5088,15.94,16.83,43.2,0,110.4,13.4,16.74,288.3
"2010-05-24 01:24:00",138868,5.889,323,6.733,0.548,17.14,106.5136,15.95,16.83,42.55,0,110.4,13.4,16.76,285.0
"2010-05-24 01:24:30",138869,6.977,328.8,5.873,0.951,16.53,106.5596,16.07,16.88,42.94,0,110.4,13.4,16.87,290.8
"2010-05-24 01:25:00",138870,6.598,324.1,4.298,0.966,16.66,106.5629,16.07,16.92,42.82,0,110.4,13.41,16.88,286.1
"2010-05-24 01:25:30",138871,3.677,347.9,11.37,0.992,17.03,106.583,16.13,16.96,42.36,0,110.4,13.41,16.93,309.9
"2010-05-24 01:26:00",138872,3.224,358.4,12.63,0.625,17,106.6179,16.22,17.01,42,0,110.4,13.41,17.02,320.4
"2010-05-24 01:26:30",138873,4.403,339.4,11.53,0.942,16.86,106.6492,16.3,17.07,41.99,0,110.4,13.41,17.11,301.4
"2010-05-24 01:27:00",138874,6.69,328.3,3.116,0.675,16.32,106.6602,16.32,17.12,42.5,0,110.4,13.4,17.13,290.3
"2010-05-24 01:27:30",138875,6.512,327.5,5.304,0.621,16.58,106.632,16.25,17.12,42.41,0,110.4,13.4,17.06,289.5
"2010-05-24 01:28:00",138876,6.095,323.6,3.318,0.322,16.7,106.6306,16.25,17.12,42.21,0,110.4,13.4,17.06,285.6
"2010-05-24 01:28:30",138877,5.673,311.4,7.395,0.275,16.92,106.6413,16.28,17.13,41.93,0,110.4,13.4,17.08,273.4
"2010-05-24 01:29:00",138878,6.069,316,8.7,0.479,17.04,106.6816,16.38,17.18,41.27,0,110.4,13.4,17.19,278.0
"2010-05-24 01:29:30",138879,7.911,323.3,2.646,0.645,16.11,106.6903,16.4,17.22,42.24,0,110.4,13.4,17.21,285.3
"2010-05-24 01:30:00",138880,7.898,318.4,4.249,0.481,16.18,106.6512,16.3,17.19,42.27,0,110.4,13.4,17.11,280.4
"2010-05-24 01:30:30",138881,7.735,323.9,3.601,0.523,16.31,106.6292,16.24,17.15,42.29,0,110.4,13.4,17.05,285.9
"2010-05-24 01:31:00",138882,6.745,317.9,9.63,1.02,16.9,106.597,16.16,17.11,41.83,0,110.4,13.4,16.97,279.9
"2010-05-24 01:31:30",138883,6.071,310.8,4.741,0.583,17.23,106.6241,16.23,17.13,41.13,0,110.4,13.4,17.04,272.8
"2010-05-24 01:32:00",138884,6.782,314.1,3.782,0.98,16.7,106.6574,16.32,17.17,41.5,0,110.4,13.4,17.13,276.1
"2010-05-24 01:32:30",138885,7.801,321.6,1.746,0.446,16.35,106.6427,16.28,17.17,42.39,0,110.4,13.4,17.09,283.6
"2010-05-24 01:33:00",138886,7.458,319.9,3.077,0.398,16.37,106.6303,16.25,17.17,42.39,0,110.4,13.4,17.06,281.9
"2010-05-24 01:33:30",138887,7.015,330.1,4.091,0.863,16.77,106.619,16.22,17.16,42.29,0,110.4,13.4,17.03,292.1
"2010-05-24 01:34:00",138888,7.086,322.1,4.81,0.682,16.54,106.6038,16.18,17.14,42.35,0,110.4,13.4,16.99,284.1
"2010-05-24 01:34:30",138889,6.846,329.3,5.275,0.678,16.52,106.5968,16.16,17.12,42.77,0,110.4,13.4,16.97,291.3
"2010-05-24 01:35:00",138890,5.894,324.3,4.432,0.373,16.64,106.5781,16.11,17.11,42.59,0,110.4,13.4,16.92,286.3
"2010-05-24 01:35:30",138891,7.202,324.8,2.391,0.493,16.56,106.5638,16.08,17.07,42.75,0,110.4,13.4,16.89,286.8
"2010-05-24 01:36:00",138892,7.981,326.4,2.997,0.318,16.47,106.5632,16.08,17.05,42.89,0,110.4,13.4,16.88,288.4
"2010-05-24 01:36:30",138893,7.646,323.6,3.167,0.569,16.77,106.5562,16.06,17.03,42.89,0,110.4,13.4,16.87,285.6
"2010-05-24 01:37:00",138894,6.89,321.3,6.069,0.492,16.92,106.5604,16.07,17.01,42.72,0,110.4,13.4,16.88,283.3
"2010-05-24 01:37:30",138895,6.959,326.3,2.323,0.177,16.71,106.5635,16.08,17.03,43.17,0,110.4,13.4,16.88,288.3
"2010-05-24 01:38:00",138896,7.589,325.5,1.807,0.304,16.7,106.5662,16.08,17.01,43.3,0,110.4,13.4,16.89,287.5
"2010-05-24 01:38:30",138897,7.904,325.5,1.934,0.47,16.53,106.555,16.05,17,43.51,0,110.4,13.41,16.86,287.5
"2010-05-24 01:39:00",138898,7.946,322.1,3.034,0.5,16.62,106.5339,16,16.99,43.5,0,110.4,13.41,16.81,284.1
"2010-05-24 01:39:30",138899,6.748,332.2,4.418,0.583,16.91,106.5363,16.01,16.97,43.41,0,110.4,13.41,16.81,294.2
"2010-05-24 01:40:00",138900,6.765,331.6,2.769,0.447,16.88,106.5381,16.01,16.97,43.29,0,110.4,13.41,16.82,293.6
"2010-05-24 01:40:30",138901,6.332,339.7,3.022,0.749,16.89,106.543,16.02,16.98,43.46,0,110.4,13.41,16.83,301.7
"2010-05-24 01:41:00",138902,4.879,325.7,5.304,0.343,17.32,106.5723,16.1,17,42.2,0,110.4,13.41,16.91,287.7
"2010-05-24 01:41:30",138903,4.784,325.7,5.169,0.552,17.42,106.6161,16.21,17.05,41.44,0,110.4,13.41,17.02,287.7
"2010-05-24 01:42:00",138904,6.718,332.6,3.619,0.547,16.9,106.6487,16.29,17.12,42.59,0,110.4,13.41,17.10,294.6
"2010-05-24 01:42:30",138905,5.869,336.6,8.93,0.79,17.4,106.6602,16.32,17.15,41.68,0,110.4,13.41,17.13,298.6
"2010-05-24 01:43:00",138906,4.757,317.1,16.21,0.556,17.74,106.6915,16.4,17.2,40.44,0,110.4,13.41,17.21,279.1
"2010-05-24 01:43:30",138907,5.952,324.7,9.5,1.072,17,106.74,16.53,17.27,41.2,0,110.4,13.41,17.34,286.7
"2010-05-24 01:44:00",138908,5.73,332.5,3.073,0.726,16.68,106.7318,16.51,17.31,42.36,0,110.4,13.41,17.32,294.5
"2010-05-24 01:44:30",138909,4.732,325.6,6.446,0.924,17.15,106.7281,16.5,17.31,41.51,0,110.4,13.41,17.31,287.6
"2010-05-24 01:45:00",138910,5.778,331.4,6.447,0.947,17.12,106.7295,16.5,17.31,41.59,0,110.4,13.41,17.31,293.4
"2010-05-24 01:45:30",138911,4.969,329.6,6.83,0.506,17.02,106.7321,16.51,17.35,41.75,0,110.4,13.41,17.32,291.6
"2010-05-24 01:46:00",138912,4.759,337.8,6.233,0.49,17.06,106.7315,16.51,17.35,41.85,0,110.4,13.41,17.32,299.8
"2010-05-24 01:46:30",138913,5.138,331.5,3.194,0.406,17.11,106.7295,16.5,17.37,41.74,0,110.4,13.41,17.31,293.5
"2010-05-24 01:47:00",138914,5.381,339.1,4.004,0.26,17.12,106.7304,16.5,17.36,41.94,0,110.4,13.41,17.31,301.1
"2010-05-24 01:47:30",138915,5.35,337.6,6.318,0.265,17.02,106.7245,16.49,17.35,42.07,0,110.4,13.41,17.30,299.6
"2010-05-24 01:48:00",138916,5.851,340.4,2.982,0.174,17.02,106.6985,16.42,17.35,42.58,0,110.4,13.42,17.23,302.4